Вернуться в каталог

NIMBUS 2 DEB

АктивенLEO
NORAD 37891·DEBRIS·🇺🇸 United States

Запущен May 15, 1966 с Vandenberg Space Force Base

Loading…

Ближайшие Пролёты (ближайшие 24 часа)

TLE

СвежийSource: Space-Track

Эпоха: Sep 12, 2026, 21:26 UTC

1 37891U 66040AW  26255.89358056  .00001269  00000-0  20364-2 0  9993
2 37891 100.5392 233.2593 0067081  40.3972 320.2114 13.50217329745747

Отслеживайте NIMBUS 2 DEB в реальном времени с AllMySat

Download on the App Store